Temp
-6 -6 -6 -6 -7 -7 -7 -7 -8 -8 -8 -9 -9 -10 -10 -10 -10 -10 -11 -11 -11 -11 -11 -11 -11 -11 -12 -12 -13 -13 -14 -14 -14 -15 -14 -14 -15 -15 -16 -16 -17 -18 -18 -18
-7 -7 -7 -7 -7 -7 -8 -8 -8 -9 -9 -9 -9 -10 -11 -10 -10 -11 -11 -11 -11 -11 -11 -11 -12 -12 -12 -13 -13 -14 -14 -14 -14 -14 -15 -15 -16 -16 -17 -18 -18 -19 -19 -21
-7 -7 -7 -7 -8 -8 -8 -8 -9 -9 -9 -9 -10 -10 -11 -11 -11 -11 -11 -11 -11 -11 -11 -12 -12 -13 -13 -14 -14 -14 -14 -15 -15 -15 -16 -16 -17 -18 -19 -20 -21 -23 -24 -25
-8 -8 -8 -8 -8 -9 -9 -9 -9 -9 -9 -9 -10 -10 -10 -10 -11 -11 -11 -11 -11 -11 -12 -12 -12 -13 -14 -14 -14 -15 -15 -15 -16 -16 -16 -17 -18 -20 -21 -23 -25 -26 -26 -26
-8 -8 -9 -9 -9 -9 -9 -9 -9 -10 -10 -10 -10 -11 -10 -11 -11 -11 -11 -11 -12 -12 -12 -13 -13 -14 -14 -14 -15 -16 -16 -16 -16 -16 -17 -18 -20 -23 -24 -26 -26 -26 -26 -25
-9 -9 -9 -9 -9 -9 -10 -10 -10 -10 -10 -10 -11 -11 -11 -11 -12 -12 -12 -12 -12 -12 -13 -13 -14 -14 -15 -16 -16 -16 -16 -16 -17 -17 -18 -20 -23 -24 -25 -25 -25 -25 -25 -25
-9 -9 -9 -9 -10 -10 -10 -10 -10 -10 -10 -11 -11 -12 -12 -12 -12 -12 -12 -12 -12 -13 -13 -14 -14 -15 -16 -16 -16 -17 -17 -17 -17 -18 -19 -23 -24 -25 -25 -25 -25 -25 -25 -24
-10 -9 -10 -10 -10 -10 -10 -11 -11 -11 -11 -12 -12 -12 -12 -12 -12 -12 -12 -13 -13 -13 -14 -14 -15 -16 -17 -17 -17 -17 -18 -18 -18 -18 -21 -23 -24 -24 -24 -24 -24 -24 -24 -25
-10 -10 -10 -10 -10 -11 -11 -11 -12 -12 -12 -12 -12 -12 -12 -13 -12 -12 -13 -13 -13 -14 -15 -15 -16 -17 -17 -17 -17 -18 -18 -19 -19 -19 -22 -23 -24 -24 -24 -24 -24 -24 -25 -25
-10 -10 -10 -11 -11 -11 -11 -12 -12 -12 -12 -12 -12 -12 -12 -12 -13 -13 -13 -14 -14 -15 -16 -16 -16 -17 -17 -18 -18 -18 -19 -20 -19 -20 -22 -23 -23 -23 -23 -23 -24 -24 -24 -24
-10 -11 -11 -11 -11 -12 -12 -12 -12 -12 -12 -12 -12 -13 -13 -13 -13 -13 -14 -14 -15 -15 -16 -16 -17 -17 -18 -18 -18 -19 -20 -20 -20 -21 -21 -22 -22 -23 -23 -23 -23 -24 -24 -24
-11 -11 -11 -11 -12 -12 -12 -12 -12 -13 -12 -13 -13 -12 -13 -13 -13 -14 -14 -14 -15 -15 -16 -17 -17 -18 -18 -18 -19 -19 -20 -20 -21 -21 -21 -22 -22 -22 -23 -23 -23 -23 -23 -24
-11 -11 -11 -12 -12 -12 -12 -13 -13 -13 -13 -13 -13 -14 -13 -14 -14 -14 -14 -15 -15 -16 -17 -17 -17 -18 -18 -19 -19 -19 -20 -21 -21 -21 -22 -22 -22 -22 -23 -23 -23 -23 -23 -24
-11 -12 -12 -12 -12 -12 -12 -13 -13 -13 -13 -13 -14 -14 -13 -14 -14 -14 -15 -15 -16 -17 -17 -18 -18 -18 -18 -19 -19 -20 -20 -21 -21 -21 -21 -22 -22 -23 -23 -23 -23 -24 -24 -24
-12 -12 -12 -12 -12 -12 -13 -13 -13 -13 -14 -13 -14 -13 -14 -15 -15 -15 -16 -16 -17 -17 -17 -18 -18 -19 -19 -19 -20 -20 -20 -21 -21 -21 -21 -21 -22 -22 -23 -23 -24 -24 -24 -24
-12 -12 -12 -12 -13 -13 -13 -13 -13 -14 -14 -14 -14 -14 -15 -15 -15 -15 -16 -17 -17 -18 -18 -18 -18 -19 -19 -20 -20 -20 -20 -21 -21 -21 -20 -21 -21 -22 -23 -23 -23 -23 -23 -23
-12 -13 -13 -13 -13 -13 -13 -14 -14 -14 -14 -14 -14 -14 -14 -15 -15 -16 -17 -17 -18 -18 -18 -18 -19 -19 -19 -20 -20 -20 -21 -21 -21 -21 -21 -21 -21 -22 -22 -23 -23 -23 -23 -23
-13 -13 -13 -13 -13 -13 -13 -14 -14 -14 -14 -14 -14 -15 -15 -16 -16 -17 -18 -18 -18 -18 -18 -19 -19 -19 -19 -20 -20 -21 -21 -21 -21 -21 -21 -21 -21 -22 -22 -22 -23 -23 -23 -23
-13 -13 -13 -13 -13 -13 -14 -14 -14 -14 -14 -15 -15 -15 -16 -16 -17 -18 -18 -18 -18 -18 -18 -19 -19 -19 -20 -20 -21 -21 -21 -22 -21 -21 -21 -21 -22 -22 -22 -23 -23 -23 -23 -23
-14 -14 -14 -14 -14 -14 -14 -15 -14 -14 -14 -15 -15 -16 -16 -17 -17 -17 -18 -18 -18 -18 -19 -19 -19 -20 -20 -20 -21 -21 -21 -22 -22 -21 -22 -22 -22 -23 -23 -23 -23 -23 -23 -23
-14 -14 -14 -14 -15 -15 -15 -15 -15 -15 -15 -15 -16 -16 -17 -17 -18 -18 -18 -18 -18 -19 -19 -19 -19 -20 -20 -21 -21 -22 -22 -22 -22 -22 -22 -22 -23 -23 -23 -24 -24 -24 -24 -24
-15 -15 -15 -15 -15 -15 -15 -15 -15 -15 -15 -16 -16 -17 -17 -17 -17 -18 -18 -19 -19 -19 -19 -20 -20 -20 -20 -21 -22 -22 -22 -22 -23 -23 -23 -23 -23 -24 -24 -24 -24 -24 -24 -25
-15 -15 -15 -16 -15 -15 -15 -15 -15 -16 -16 -16 -17 -17 -17 -17 -18 -19 -19 -19 -19 -20 -20 -20 -20 -20 -20 -21 -22 -23 -23 -23 -23 -23 -23 -23 -24 -24 -24 -24 -24 -25 -25 -25
-16 -16 -16 -16 -16 -16 -15 -15 -16 -16 -16 -17 -17 -17 -17 -18 -18 -19 -19 -20 -20 -20 -20 -20 -20 -20 -21 -22 -23 -23 -23 -23 -24 -24 -23 -24 -24 -24 -24 -25 -25 -25 -26 -26
-16 -16 -16 -16 -16 -16 -16 -16 -16 -17 -17 -17 -18 -18 -18 -19 -19 -19 -20 -20 -20 -20 -20 -20 -21 -21 -21 -22 -23 -23 -24 -24 -24 -24 -24 -25 -25 -25 -25 -25 -25 -26 -26 -27
-17 -17 -17 -16 -17 -16 -17 -17 -17 -18 -18 -18 -18 -19 -19 -19 -19 -20 -20 -20 -20 -20 -21 -21 -21 -21 -21 -22 -23 -23 -24 -24 -25 -25 -25 -25 -25 -25 -25 -26 -26 -26 -27 -28
Height
5900 5898 5896 5893 5891 5888 5886 5882 5879 5875 5871 5867 5863 5859 5858 5856 5854 5851 5849 5845 5842 5837 5832 5826 5820 5813 5805 5796 5787 5778 5770 5762 5751 5740 5729 5717 5701 5687 5674 5661 5647 5635 5623 5614
5894 5892 5890 5888 5886 5883 5880 5877 5874 5870 5866 5863 5859 5856 5855 5854 5851 5849 5845 5841 5836 5832 5825 5817 5810 5803 5794 5784 5775 5766 5758 5748 5737 5723 5709 5693 5678 5662 5647 5633 5617 5605 5594 5583
5887 5886 5884 5883 5880 5877 5873 5871 5868 5864 5861 5858 5854 5852 5851 5851 5848 5844 5839 5836 5831 5825 5819 5811 5802 5793 5783 5773 5764 5754 5744 5733 5721 5707 5691 5675 5656 5639 5623 5608 5594 5582 5572 5565
5882 5880 5880 5877 5875 5874 5869 5866 5863 5859 5856 5855 5853 5847 5849 5847 5843 5838 5834 5829 5824 5817 5809 5802 5792 5781 5772 5762 5753 5741 5731 5718 5704 5689 5672 5654 5636 5619 5604 5591 5579 5571 5564 5558
5878 5875 5873 5871 5870 5867 5864 5861 5858 5855 5852 5850 5849 5845 5840 5841 5837 5831 5827 5823 5816 5809 5801 5792 5782 5772 5761 5751 5740 5729 5717 5703 5688 5672 5654 5635 5617 5602 5591 5582 5574 5566 5557 5548
5872 5870 5868 5866 5864 5862 5859 5857 5854 5851 5849 5847 5844 5842 5835 5834 5829 5825 5821 5815 5808 5800 5791 5781 5772 5762 5752 5741 5730 5718 5705 5691 5675 5656 5638 5618 5604 5595 5586 5578 5569 5560 5549 5538
5867 5865 5862 5861 5859 5857 5855 5852 5849 5847 5845 5843 5839 5837 5834 5829 5824 5819 5814 5807 5800 5791 5782 5772 5762 5751 5742 5732 5720 5707 5692 5677 5660 5642 5624 5609 5599 5590 5581 5573 5562 5552 5539 5529
5861 5860 5857 5856 5854 5852 5850 5848 5847 5843 5842 5839 5835 5832 5828 5823 5818 5813 5807 5800 5791 5782 5773 5762 5753 5742 5733 5722 5711 5697 5680 5664 5649 5633 5615 5605 5595 5585 5576 5566 5555 5543 5532 5522
5855 5855 5853 5851 5849 5847 5846 5844 5842 5839 5837 5833 5831 5827 5823 5817 5812 5806 5799 5790 5782 5773 5763 5754 5745 5736 5725 5714 5702 5687 5670 5655 5641 5625 5610 5600 5590 5579 5570 5559 5548 5537 5527 5518
5850 5849 5848 5846 5844 5843 5841 5840 5838 5835 5831 5827 5822 5819 5816 5810 5803 5797 5790 5782 5773 5764 5755 5747 5738 5728 5717 5705 5691 5677 5663 5650 5635 5618 5607 5597 5586 5575 5564 5554 5543 5533 5523 5513
5845 5844 5844 5842 5840 5838 5837 5834 5832 5829 5826 5821 5817 5813 5806 5801 5796 5789 5782 5774 5766 5757 5748 5739 5729 5719 5708 5695 5682 5670 5657 5645 5631 5616 5605 5594 5583 5571 5561 5551 5540 5529 5520 5510
5839 5838 5837 5836 5834 5832 5830 5828 5825 5822 5818 5815 5810 5808 5801 5795 5789 5782 5775 5767 5758 5749 5740 5730 5721 5711 5700 5688 5676 5665 5653 5640 5627 5614 5603 5592 5580 5569 5558 5548 5537 5528 5519 5510
5834 5833 5831 5830 5829 5826 5824 5822 5819 5816 5812 5808 5803 5797 5792 5787 5781 5774 5766 5758 5750 5740 5731 5722 5713 5703 5692 5681 5670 5659 5647 5636 5625 5612 5600 5589 5578 5566 5556 5546 5536 5526 5519 5511
5828 5827 5825 5824 5822 5820 5818 5816 5812 5809 5805 5800 5795 5789 5784 5779 5773 5765 5758 5750 5741 5732 5723 5714 5705 5695 5686 5675 5665 5653 5643 5632 5622 5610 5599 5587 5576 5566 5555 5546 5536 5526 5519 5513
5821 5820 5819 5817 5815 5813 5811 5808 5805 5802 5798 5793 5787 5782 5775 5771 5764 5756 5748 5739 5730 5722 5714 5706 5697 5689 5679 5670 5659 5648 5638 5628 5619 5608 5598 5587 5576 5566 5556 5547 5537 5529 5522 5515
5814 5813 5811 5810 5808 5806 5804 5800 5797 5793 5789 5785 5779 5774 5768 5762 5755 5747 5739 5731 5722 5715 5707 5700 5692 5684 5674 5664 5654 5644 5634 5624 5616 5607 5596 5586 5576 5567 5558 5549 5540 5532 5525 5518
5807 5805 5804 5803 5801 5798 5797 5792 5789 5785 5780 5776 5771 5766 5760 5754 5747 5739 5731 5723 5715 5706 5698 5692 5684 5676 5667 5658 5648 5638 5630 5621 5613 5605 5596 5586 5577 5569 5561 5552 5543 5535 5527 5519
5799 5797 5796 5794 5792 5790 5787 5784 5780 5776 5771 5767 5762 5757 5751 5745 5738 5730 5722 5716 5708 5702 5694 5686 5678 5670 5661 5651 5644 5634 5625 5618 5610 5603 5594 5585 5577 5569 5562 5553 5544 5536 5529 5521
5790 5789 5787 5785 5783 5782 5778 5775 5771 5767 5764 5758 5753 5748 5742 5735 5728 5723 5715 5708 5702 5695 5688 5680 5671 5663 5654 5645 5637 5629 5621 5615 5607 5600 5591 5584 5576 5569 5562 5554 5546 5539 5531 5523
5781 5779 5778 5775 5772 5770 5769 5764 5761 5757 5754 5749 5744 5738 5732 5725 5719 5713 5707 5701 5694 5688 5681 5673 5664 5656 5648 5639 5631 5624 5616 5610 5603 5596 5589 5582 5575 5568 5561 5553 5545 5538 5531 5524
5771 5768 5766 5764 5762 5761 5758 5755 5752 5750 5748 5740 5735 5729 5723 5716 5710 5704 5699 5693 5687 5680 5674 5666 5657 5649 5640 5632 5624 5618 5612 5605 5599 5593 5586 5579 5573 5567 5560 5552 5543 5535 5527 5520
5760 5759 5758 5754 5753 5753 5750 5747 5745 5742 5735 5731 5725 5720 5714 5709 5702 5697 5690 5686 5679 5673 5666 5658 5650 5642 5633 5625 5619 5613 5607 5601 5595 5590 5584 5577 5571 5565 5557 5549 5541 5532 5524 5516
5750 5748 5747 5747 5745 5742 5740 5738 5735 5730 5725 5721 5716 5711 5706 5701 5696 5690 5684 5678 5672 5665 5658 5651 5643 5635 5628 5620 5613 5608 5603 5597 5592 5587 5581 5575 5569 5561 5554 5547 5538 5530 5522 5513
5739 5736 5738 5737 5735 5732 5730 5727 5724 5720 5715 5712 5707 5702 5697 5692 5687 5681 5676 5670 5664 5658 5650 5644 5636 5629 5622 5615 5609 5605 5599 5594 5590 5585 5578 5572 5566 5559 5553 5546 5537 5528 5519 5509
5729 5727 5726 5726 5724 5722 5720 5717 5714 5710 5706 5701 5697 5692 5688 5683 5678 5673 5668 5662 5657 5650 5643 5636 5630 5624 5617 5610 5605 5601 5596 5591 5588 5583 5576 5571 5564 5558 5552 5545 5536 5527 5517 5507
5716 5716 5716 5716 5714 5711 5709 5706 5704 5700 5696 5692 5688 5684 5679 5675 5670 5664 5658 5653 5648 5642 5636 5629 5624 5618 5612 5605 5601 5597 5593 5588 5585 5580 5575 5570 5565 5558 5552 5544 5535 5525 5515 5503
Wind_Speed
19 19 19 20 22 23 26 28 30 29 28 27 27 26 22 19 21 24 25 28 31 35 39 45 49 54 57 58 60 61 61 64 69 72 75 80 83 85 86 85 85 85 83 82
18 18 20 21 22 25 28 28 28 28 26 26 25 23 20 19 23 26 27 30 34 38 45 51 53 56 58 60 61 62 64 68 74 79 83 87 89 89 87 87 85 83 85 86
19 19 20 22 24 28 30 29 29 27 26 25 26 23 21 21 25 26 31 34 39 45 49 52 55 57 60 61 62 65 70 75 79 83 85 88 89 90 81 79 79 71 60 54
19 21 22 24 26 27 29 28 27 27 26 25 22 32 22 24 26 31 35 41 44 48 51 54 56 59 60 62 65 71 73 79 83 85 88 90 90 76 68 59 46 43 39 40
20 22 24 25 26 26 26 25 25 25 26 27 23 27 34 29 31 36 40 43 46 48 51 54 58 59 61 64 67 70 76 81 84 86 89 90 73 57 47 38 40 42 46 49
21 22 24 25 24 22 23 24 23 24 25 26 26 28 35 32 36 39 41 43 47 50 53 56 58 59 61 63 66 72 77 81 83 86 89 76 55 46 41 40 46 49 49 50
23 24 25 26 23 22 21 21 23 25 24 25 26 29 29 33 36 38 42 46 49 51 54 56 57 61 63 65 68 73 77 80 84 86 84 59 49 45 43 48 50 53 49 43
24 25 26 24 21 20 19 19 20 23 24 27 26 29 30 32 36 39 43 46 49 52 54 56 60 61 62 65 69 73 77 80 83 80 67 50 48 47 50 50 55 49 45 43
23 22 21 20 19 18 17 18 20 23 24 27 29 29 31 34 38 42 45 48 51 54 56 58 58 60 63 66 70 73 77 76 74 69 54 49 48 47 49 54 48 46 43 38
22 21 19 17 17 18 18 18 20 22 27 28 31 32 34 39 42 43 47 49 52 55 56 56 59 62 63 65 71 72 72 66 64 57 51 48 48 49 50 47 46 44 42 38
24 22 19 18 18 17 17 19 20 23 24 28 33 35 38 42 43 45 47 49 52 55 55 57 59 61 61 65 68 70 64 59 58 54 52 49 47 46 47 46 46 43 39 35
23 21 21 20 18 18 18 19 22 25 30 29 32 36 38 41 43 44 45 49 52 53 55 55 58 59 61 66 66 67 59 56 56 53 51 48 47 45 45 46 45 42 37 32
21 22 22 21 21 20 21 22 25 27 29 32 35 40 40 41 42 43 47 50 51 53 54 55 56 57 59 63 64 64 56 54 54 56 52 47 45 45 45 44 43 43 35 30
21 21 22 22 20 21 22 23 26 29 32 36 37 39 42 42 43 46 48 51 51 51 53 55 55 56 60 63 63 61 53 51 53 53 49 47 45 43 42 41 42 40 32 26
23 21 24 26 25 25 26 27 30 32 33 38 38 40 44 42 43 46 49 49 48 50 52 53 53 54 58 61 61 55 49 48 50 46 47 44 44 45 43 42 39 34 30 31
27 26 26 27 28 31 31 31 33 37 37 38 40 42 41 42 45 48 49 47 48 48 51 52 54 56 59 60 59 51 46 44 42 46 41 39 41 42 40 38 35 33 31 30
30 30 31 31 32 36 37 35 36 36 37 39 41 40 42 44 47 49 48 48 47 48 48 50 52 56 58 58 55 44 41 39 39 43 39 38 39 41 40 40 37 34 33 34
32 32 32 35 37 39 39 37 36 38 39 40 40 41 43 45 48 48 47 48 49 50 51 52 53 57 57 57 53 40 37 36 40 38 33 36 39 40 39 38 38 38 37 36
37 37 39 42 42 44 41 39 38 39 40 40 40 42 44 45 48 46 46 48 50 52 52 52 55 57 56 57 48 39 36 37 37 34 32 35 37 38 38 37 36 35 35 35
39 41 44 44 44 44 39 38 39 40 42 40 42 44 44 46 48 47 46 48 49 51 52 54 55 56 57 54 46 40 35 37 32 29 30 34 36 36 35 35 35 36 36 35
44 44 43 40 40 38 37 38 40 41 41 42 43 43 44 44 44 45 46 48 50 50 52 54 55 55 55 50 45 38 35 36 27 24 29 33 34 34 35 37 39 39 39 38
43 43 41 40 37 38 38 38 40 40 41 41 41 41 42 44 45 45 45 49 49 50 53 53 53 54 50 47 41 34 33 32 23 24 27 31 32 34 37 39 39 39 40 39
41 41 40 39 39 40 38 40 40 40 40 41 41 41 47 47 45 43 45 48 49 50 50 51 52 48 47 41 35 31 30 26 21 24 26 29 31 34 37 37 38 39 40 41
39 40 38 40 41 39 40 40 40 40 42 42 43 45 44 42 44 44 45 47 49 49 49 50 48 43 44 37 31 28 27 22 23 24 26 28 30 33 33 35 37 39 41 42
41 41 41 39 38 41 41 42 43 43 43 45 45 44 43 42 44 45 47 47 48 48 48 48 42 42 41 33 29 26 23 19 23 25 25 26 28 29 32 34 37 40 42 43
43 44 42 41 41 43 42 42 44 44 45 47 46 44 43 44 45 46 48 48 48 47 46 42 39 40 38 29 27 24 21 18 19 22 22 24 26 27 30 34 39 42 44 44
Wind_Direction
290 289 290 295 302 304 305 307 311 313 315 312 309 305 300 294 287 289 292 297 298 301 302 304 305 307 308 306 304 306 308 311 312 311 312 314 313 311 310 307 303 300 295 289
290 290 293 298 301 302 305 308 311 313 314 310 306 297 290 286 289 294 298 302 304 307 309 311 310 308 307 308 310 310 311 314 315 316 319 317 315 312 310 307 302 297 291 290
291 293 296 299 301 304 305 308 312 314 313 311 306 296 291 294 298 302 302 307 309 311 311 311 311 311 311 311 311 312 316 318 320 322 320 317 315 315 311 302 300 302 302 302
289 292 294 296 299 300 303 308 312 312 313 311 307 300 296 302 306 305 307 310 314 314 314 315 314 312 313 314 315 319 320 323 324 322 321 319 319 317 311 314 321 324 320 313
289 292 296 299 301 303 304 309 311 312 312 312 309 303 302 310 308 308 311 315 316 316 316 314 313 315 316 316 320 322 325 325 324 324 324 324 324 323 329 334 330 324 317 313
286 290 294 299 304 304 305 308 312 312 313 312 311 308 308 314 310 312 316 317 318 318 316 314 315 316 317 321 322 326 326 324 326 328 327 331 330 333 331 324 322 320 317 312
285 292 294 298 298 301 304 310 312 312 314 309 313 310 313 311 313 315 319 320 319 317 314 315 318 317 320 323 326 326 325 327 331 333 332 334 332 330 325 325 324 323 323 322
286 291 293 292 294 297 302 307 303 304 309 309 313 315 316 312 314 318 320 319 319 317 318 321 320 320 324 327 327 328 329 332 335 335 338 335 334 330 327 327 328 328 327 326
287 290 291 292 293 296 300 301 301 303 309 312 311 312 312 317 315 320 322 323 320 320 322 322 320 324 327 327 328 331 333 335 337 339 343 337 335 333 330 331 332 333 333 331
289 287 291 294 296 299 301 302 303 306 311 314 316 315 318 316 320 324 326 323 322 321 322 321 323 326 326 328 332 334 335 336 341 347 347 343 340 336 335 336 336 335 336 336
289 288 289 293 296 300 301 303 307 310 313 311 311 313 320 319 322 326 324 322 322 321 321 322 324 325 327 331 333 334 336 337 346 351 347 343 342 341 341 340 340 341 343 342
287 289 292 295 299 304 307 308 311 311 312 309 310 315 317 319 322 323 321 323 321 321 321 323 325 326 329 333 333 335 335 336 344 349 347 344 343 342 342 341 344 347 350 349
289 291 292 295 300 305 308 309 308 310 310 311 313 312 318 318 320 320 325 324 322 321 324 324 325 328 330 332 332 335 336 335 340 343 343 343 343 342 341 342 347 349 356 355
291 293 290 295 301 305 307 307 306 308 307 310 313 314 318 317 319 325 324 323 322 324 324 324 327 329 330 331 332 335 336 336 340 345 348 348 349 350 352 353 352 353 -0 1
296 298 292 290 296 303 307 307 307 304 306 311 311 314 315 316 320 322 321 322 323 323 325 324 327 327 329 330 332 335 336 338 340 346 347 353 354 355 356 355 356 4 11 12
297 297 295 291 295 300 307 304 303 305 307 308 310 312 314 317 318 318 320 321 321 323 325 326 327 327 330 330 333 333 337 339 341 343 348 349 354 358 0 3 7 4 5 1
294 295 294 293 294 298 302 297 301 301 302 307 309 311 316 316 314 316 320 320 321 322 323 325 325 327 328 329 330 330 335 339 340 344 349 355 358 360 359 0 2 2 357 357
292 293 294 296 297 296 299 299 296 300 303 305 309 313 314 313 313 320 320 321 323 323 325 325 325 326 326 327 329 326 330 335 339 340 345 351 352 353 355 358 358 358 357 358
287 291 295 295 293 295 295 295 296 299 301 307 308 310 310 311 315 320 320 322 323 323 323 323 325 325 325 326 327 321 323 328 334 336 341 345 351 352 351 354 355 355 353 351
288 291 292 291 291 292 293 291 294 299 304 306 306 306 310 314 319 321 321 322 321 321 321 323 324 323 324 325 325 321 319 327 329 332 340 342 349 349 349 352 353 352 349 348
287 287 287 287 284 286 288 291 297 301 303 301 304 311 313 317 319 319 320 318 318 320 321 323 323 323 323 324 322 320 317 324 323 329 337 341 348 347 349 352 351 350 350 349
283 284 282 279 281 285 287 291 297 298 301 306 309 309 313 316 316 315 316 315 318 320 322 322 322 322 323 325 321 318 319 324 322 330 338 344 346 348 351 351 352 353 352 350
279 277 277 278 281 285 286 293 296 297 304 307 305 307 310 313 312 313 313 314 317 319 321 321 322 322 324 323 319 318 321 322 323 330 337 346 349 352 351 353 354 354 352 350
274 272 275 279 282 284 290 294 295 298 302 303 304 307 309 309 309 310 311 314 317 319 321 321 321 321 324 321 319 317 319 317 322 332 339 348 352 354 354 353 354 354 354 350
268 272 275 279 278 285 289 291 296 299 300 301 303 305 305 304 304 308 311 315 317 319 320 320 319 321 323 320 318 316 313 315 320 331 344 350 355 356 355 354 354 354 353 351
271 274 276 278 281 285 289 293 295 298 299 301 301 301 302 303 305 308 311 315 316 317 318 318 318 320 322 318 317 312 308 314 325 332 345 353 356 357 356 356 356 356 356 354